Location: Black Swamp Observatory
(41.3920°N, 84.1250°W)
Time: 02:42:30
(UTC-05:00)

X-37B - Pass Details

Date: 07 December 2021
Orbit: 331 x 339 km, 45.0° (Epoch: 27 January)

Event Time Altitude Azimuth Distance (km) Brightness Sun altitude
Rises 18:16:59 0° 232° (SW) 2,090 5.8 -12.8°
Reaches altitude 10° 18:19:02 10° 226° (SW) 1,256 4.2 -13.1°
Maximum altitude 18:21:43 43° 153° (SSE) 478 0.9 -13.6°
Enters shadow 18:22:43 29° 101° (E) 644 1.2 -13.8°
